When you browse on this site, cookies collect data to enhance your experience and personalize the content and advertising you see.
Visit our Privacy Policy to learn more. By continuing to use the site, you agree to this use of cookies and data.
  • în România
  • Lista ţărilor
  • Pe 7 zile
  • Temperatura apei
  • Meteo pe hartă
  • Widget-uri
  • user-avatar
    Intrare

    Meteo pe oră la Mazatenango

    Astăzi, 18 Noiembrie, Luni

    Timp Temperatura Precipitaţii Vânt Presiune Umiditate
    00:00 +24°C° 0 mm 1 m/s 725 mmHg 91%
    01:00 +24°C° 0.2 mm 1 m/s 725 mmHg 91%
    02:00 +23°C° 0.2 mm 1 m/s 725 mmHg 91%
    03:00 +23°C° 0.2 mm 1 m/s 725 mmHg 90%
    04:00 +23°C° 0 mm 1 m/s 725 mmHg 89%
    05:00 +23°C° 0 mm 1 m/s 725 mmHg 88%
    06:00 +23°C° 0 mm 1 m/s 725 mmHg 85%
    07:00 +25°C° 0 mm 1 m/s 726 mmHg 79%
    08:00 +27°C° 0 mm 1 m/s 726 mmHg 72%
    09:00 +29°C° 0 mm 1 m/s 727 mmHg 66%
    10:00 +30°C° 0 mm 1 m/s 726 mmHg 65%
    11:00 +31°C° 0 mm 2 m/s 726 mmHg 64%
    12:00 +32°C° 0 mm 2 m/s 725 mmHg 63%
    13:00 +30°C° 0.6 mm 2 m/s 725 mmHg 70%
    14:00 +29°C° 0.6 mm 1 m/s 724 mmHg 78%
    15:00 +28°C° 0.6 mm 1 m/s 724 mmHg 85%
    16:00 +27°C° 1.2 mm 1 m/s 724 mmHg 88%
    17:00 +26°C° 1.2 mm 1 m/s 724 mmHg 92%
    18:00 +23°C° 1.2 mm 0 m/s 724 mmHg 95%
    19:00 +25°C° 0.2 mm 1 m/s 725 mmHg 95%
    20:00 +25°C° 0.2 mm 1 m/s 726 mmHg 95%
    21:00 +25°C° 0.2 mm 1 m/s 727 mmHg 95%
    22:00 +24°C° 0 mm 1 m/s 726 mmHg 94%
    23:00 +24°C° 0 mm 1 m/s 726 mmHg 94%

    Mâine, 19 Noiembrie, Marţi

    Timp Temperatura Precipitaţii Vânt Presiune Umiditate
    00:00 +24°C° 0 mm 1 m/s 726 mmHg 94%
    01:00 +24°C° 0 mm 1 m/s 726 mmHg 93%
    02:00 +23°C° 0 mm 1 m/s 726 mmHg 92%
    03:00 +23°C° 0 mm 1 m/s 725 mmHg 91%
    04:00 +23°C° 0 mm 1 m/s 726 mmHg 90%
    05:00 +23°C° 0 mm 1 m/s 726 mmHg 88%
    06:00 +22°C° 0 mm 1 m/s 726 mmHg 87%
    07:00 +25°C° 0 mm 1 m/s 726 mmHg 80%
    08:00 +27°C° 0 mm 1 m/s 727 mmHg 73%
    09:00 +29°C° 0 mm 1 m/s 728 mmHg 66%
    10:00 +30°C° 0 mm 1 m/s 727 mmHg 64%
    11:00 +30°C° 0 mm 1 m/s 727 mmHg 62%
    12:00 +31°C° 0 mm 2 m/s 726 mmHg 61%
    13:00 +30°C° 0.1 mm 2 m/s 726 mmHg 64%
    14:00 +30°C° 0.1 mm 2 m/s 726 mmHg 68%
    15:00 +29°C° 0.1 mm 1 m/s 725 mmHg 72%
    16:00 +28°C° 0.8 mm 1 m/s 725 mmHg 79%
    17:00 +26°C° 0.8 mm 1 m/s 726 mmHg 86%
    18:00 +23°C° 0.8 mm 0 m/s 726 mmHg 93%
    19:00 +23°C° 0.2 mm 0 m/s 726 mmHg 93%
    20:00 +23°C° 0.2 mm 0 m/s 727 mmHg 93%
    21:00 +24°C° 0.2 mm 1 m/s 728 mmHg 94%
    22:00 +24°C° 0 mm 1 m/s 727 mmHg 93%
    23:00 +24°C° 0 mm 1 m/s 727 mmHg 92%

    Poimâine, 20 Noiembrie, Miercuri

    Timp Temperatura Precipitaţii Vânt Presiune Umiditate
    00:00 +24°C° 0 mm 1 m/s 727 mmHg 92%
    01:00 +24°C° 0 mm 1 m/s 727 mmHg 91%
    02:00 +23°C° 0 mm 1 m/s 727 mmHg 91%
    03:00 +23°C° 0 mm 1 m/s 727 mmHg 91%
    04:00 +23°C° 0 mm 1 m/s 727 mmHg 90%
    05:00 +23°C° 0 mm 1 m/s 727 mmHg 89%
    06:00 +23°C° 0 mm 1 m/s 727 mmHg 88%
    07:00 +25°C° 0 mm 1 m/s 727 mmHg 82%
    08:00 +27°C° 0 mm 1 m/s 728 mmHg 76%
    09:00 +29°C° 0 mm 1 m/s 728 mmHg 71%
    10:00 +29°C° 0.1 mm 1 m/s 728 mmHg 70%
    11:00 +30°C° 0.1 mm 1 m/s 727 mmHg 69%
    12:00 +30°C° 0.1 mm 2 m/s 727 mmHg 68%
    13:00 +30°C° 0.7 mm 1 m/s 726 mmHg 73%
    14:00 +29°C° 0.7 mm 1 m/s 726 mmHg 79%
    15:00 +28°C° 0.7 mm 1 m/s 725 mmHg 84%
    16:00 +27°C° 0.5 mm 1 m/s 725 mmHg 87%
    17:00 +26°C° 0.5 mm 1 m/s 726 mmHg 90%
    18:00 +23°C° 0.5 mm 0 m/s 726 mmHg 93%
    19:00 +23°C° 0.2 mm 0 m/s 727 mmHg 93%
    20:00 +25°C° 0.2 mm 1 m/s 727 mmHg 94%
    21:00 +25°C° 0.2 mm 1 m/s 728 mmHg 95%
    22:00 +25°C° 0.1 mm 1 m/s 728 mmHg 94%
    23:00 +24°C° 0.1 mm 1 m/s 727 mmHg 94%

    21 Noiembrie, Joi

    Timp Temperatura Precipitaţii Vânt Presiune Umiditate
    00:00 +22°C° 0.1 mm 0 m/s 727 mmHg 94%
    01:00 +24°C° 0 mm 1 m/s 727 mmHg 93%
    02:00 +24°C° 0 mm 1 m/s 727 mmHg 93%
    03:00 +24°C° 0 mm 1 m/s 726 mmHg 93%
    04:00 +23°C° 0 mm 1 m/s 726 mmHg 92%
    05:00 +23°C° 0 mm 1 m/s 727 mmHg 91%
    06:00 +23°C° 0 mm 1 m/s 727 mmHg 90%
    07:00 +25°C° 0 mm 1 m/s 727 mmHg 84%
    08:00 +27°C° 0 mm 1 m/s 728 mmHg 77%
    09:00 +29°C° 0 mm 1 m/s 728 mmHg 70%
    10:00 +30°C° 0 mm 1 m/s 728 mmHg 67%
    11:00 +31°C° 0 mm 2 m/s 727 mmHg 65%
    12:00 +32°C° 0 mm 2 m/s 727 mmHg 62%
    13:00 +31°C° 0.4 mm 2 m/s 726 mmHg 69%
    14:00 +30°C° 0.4 mm 2 m/s 725 mmHg 76%
    15:00 +29°C° 0.4 mm 1 m/s 725 mmHg 83%
    16:00 +28°C° 0.4 mm 1 m/s 725 mmHg 86%
    17:00 +27°C° 0.4 mm 1 m/s 725 mmHg 90%
    18:00 +25°C° 0.4 mm 1 m/s 726 mmHg 93%
    19:00 +25°C° 0.6 mm 1 m/s 726 mmHg 93%
    20:00 +25°C° 0.6 mm 1 m/s 726 mmHg 94%
    21:00 +24°C° 0.6 mm 1 m/s 727 mmHg 94%
    22:00 +24°C° 0 mm 1 m/s 727 mmHg 93%
    23:00 +24°C° 0 mm 1 m/s 727 mmHg 92%

    22 Noiembrie, Vineri

    Timp Temperatura Precipitaţii Vânt Presiune Umiditate
    00:00 +23°C° 0 mm 1 m/s 727 mmHg 91%
    01:00 +23°C° 0 mm 1 m/s 726 mmHg 90%
    02:00 +23°C° 0 mm 1 m/s 726 mmHg 89%
    03:00 +23°C° 0 mm 1 m/s 725 mmHg 88%
    04:00 +23°C° 0 mm 1 m/s 726 mmHg 86%
    05:00 +23°C° 0 mm 1 m/s 726 mmHg 83%
    06:00 +23°C° 0 mm 1 m/s 726 mmHg 81%
    07:00 +25°C° 0 mm 1 m/s 727 mmHg 75%
    08:00 +27°C° 0 mm 1 m/s 727 mmHg 70%
    09:00 +29°C° 0 mm 1 m/s 727 mmHg 64%
    10:00 +30°C° 0 mm 1 m/s 727 mmHg 63%
    11:00 +31°C° 0 mm 1 m/s 727 mmHg 61%
    12:00 +32°C° 0 mm 2 m/s 727 mmHg 59%
    13:00 +31°C° 0.1 mm 2 m/s 726 mmHg 63%
    14:00 +30°C° 0.1 mm 2 m/s 725 mmHg 67%
    15:00 +30°C° 0.1 mm 2 m/s 725 mmHg 71%
    16:00 +28°C° 0.1 mm 1 m/s 725 mmHg 78%
    17:00 +27°C° 0.1 mm 1 m/s 725 mmHg 84%
    18:00 +26°C° 0.1 mm 1 m/s 725 mmHg 91%
    19:00 +25°C° 0 mm 1 m/s 726 mmHg 91%
    20:00 +25°C° 0 mm 1 m/s 726 mmHg 91%
    21:00 +24°C° 0 mm 1 m/s 727 mmHg 91%
    22:00 +24°C° 0 mm 1 m/s 727 mmHg 89%
    23:00 +24°C° 0 mm 1 m/s 727 mmHg 87%

    23 Noiembrie, Sâmbătă

    Timp Temperatura Precipitaţii Vânt Presiune Umiditate
    00:00 +23°C° 0 mm 1 m/s 727 mmHg 85%
    01:00 +23°C° 0 mm 1 m/s 726 mmHg 82%
    02:00 +23°C° 0 mm 2 m/s 726 mmHg 78%
    03:00 +23°C° 0 mm 2 m/s 725 mmHg 75%
    04:00 +23°C° 0 mm 2 m/s 726 mmHg 71%
    05:00 +23°C° 0 mm 2 m/s 726 mmHg 68%
    06:00 +23°C° 0 mm 2 m/s 726 mmHg 64%
    07:00 +25°C° 0 mm 1 m/s 727 mmHg 61%
    08:00 +27°C° 0 mm 1 m/s 727 mmHg 59%
    09:00 +27°C° 0 mm 0 m/s 728 mmHg 56%
    10:00 +30°C° 0 mm 1 m/s 727 mmHg 56%
    11:00 +31°C° 0 mm 1 m/s 727 mmHg 56%
    12:00 +32°C° 0 mm 2 m/s 727 mmHg 56%
    13:00 +31°C° 0.1 mm 2 m/s 726 mmHg 59%
    14:00 +31°C° 0.1 mm 2 m/s 725 mmHg 62%
    15:00 +31°C° 0.1 mm 2 m/s 725 mmHg 66%
    16:00 +29°C° 0.3 mm 1 m/s 725 mmHg 74%
    17:00 +27°C° 0.3 mm 1 m/s 725 mmHg 83%
    18:00 +25°C° 0.3 mm 1 m/s 726 mmHg 91%
    19:00 +25°C° 0 mm 1 m/s 726 mmHg 90%
    20:00 +24°C° 0 mm 1 m/s 727 mmHg 89%
    21:00 +24°C° 0 mm 2 m/s 727 mmHg 87%
    22:00 +24°C° 0 mm 2 m/s 727 mmHg 85%
    23:00 +23°C° 0 mm 2 m/s 727 mmHg 83%
    Arată mai mult